Location: McLaughlin
(0.0000°N, 0.0000°E)
Time: 20:58:54
(UTC+00:00)

Envisat - Pass Details

Date: 24 June 2019
Orbit: 764 x 766 km, 98.1° (Epoch: 17 July)

Event Time Altitude Azimuth Distance (km) Brightness Sun altitude
Rises 18:36:28 0° 162° (SSE) 3,231 5.8 -7.8°
Reaches altitude 10° 18:38:48 10° 159° (SSE) 2,303 5.1 -8.3°
Maximum altitude 18:43:50 65° 78° (ENE) 841 3.0 -9.5°
Drops below altitude 10° 18:48:50 10° 357° (N) 2,293 5.8 -10.6°
Sets 18:51:09 0° 354° (N) 3,216 6.7 -11.2°
